Vertical_Velocity
-1 0 -0 -2 1 0 0 7 1 0 -3 -1 -1 -2 2 2 -2 -3 -3 -2 -5 -3 -2 -3 -3 -6 -2
1 0 1 3 4 5 7 1 -6 -1 -2 -4 -4 2 6 0 -1 -1 -2 -3 -4 2 1 1 -5 -7 -4
6 6 3 8 10 7 -0 -2 -1 2 1 1 1 -1 2 -1 -2 -3 -6 -3 -2 -1 -2 2 -3 -7 -8
2 1 6 3 0 -2 -0 -2 -2 3 2 0 0 0 0 0 -2 3 -2 -3 -3 -2 -7 -7 -9 -8 -9
4 -1 1 2 -1 -0 1 -1 0 1 4 -2 4 -3 1 -4 -4 -6 -6 -6 -6 -6 -3 -10 -11 -6 -2
2 -0 -5 -7 -3 0 1 4 1 -1 9 -14 1 -3 -3 -5 -7 -8 -8 -4 -3 -12 -13 -10 -7 1 1
1 -2 -2 3 -3 0 2 3 5 -4 -3 14 -1 -0 -3 -3 -5 -5 -7 -13 -12 -9 -7 -3 -1 -3 -2
-1 1 0 -2 -4 0 2 3 0 -5 -5 7 3 3 3 -2 -10 -12 -9 -9 -11 -9 -8 -6 -5 -1 -1
-1 -0 -2 -4 3 1 1 1 6 -5 -8 -7 -5 -5 9 0 -4 -12 -11 -8 -1 -3 -2 -2 -5 0 2
-0 2 1 0 2 3 1 -2 -0 3 -0 1 3 -12 -1 12 7 0 -3 -5 0 -6 -4 -5 -10 -9 2
-0 -0 1 -0 -0 -1 3 -2 -1 -1 -9 -10 -2 -5 -3 -15 6 1 0 9 1 0 2 -2 -7 -12 -3
1 0 -2 -0 0 1 2 1 -3 -6 -4 -5 -7 -3 -2 -2 -7 -3 -4 3 -4 -3 1 2 -1 -5 -6
1 2 -0 -0 1 0 -1 -5 -9 -6 -7 -6 -2 0 -3 -3 -8 -4 1 8 5 0 2 2 0 -2 7
2 0 0 -1 -0 -4 -3 -3 0 -6 -14 -7 -5 -2 5 -3 -8 -5 -3 -13 3 5 4 1 -1 -11 -5
-0 0 -2 -6 -4 0 -1 -2 -3 2 2 -7 -8 -6 -5 -9 -0 -7 -1 -1 -3 -1 -1 3 2 -8 -1
-1 -3 -4 -2 -3 -5 -3 -1 1 -2 -2 -3 -1 9 3 6 -33 -17 5 -11 1 1 -4 -6 10 -4 -3
0 0 -1 -2 -3 -2 0 0 -5 2 -9 -8 -5 -10 -2 7 21 -24 -7 -2 1 5 -3 0 -2 1 -6
Height
5729 5727 5725 5723 5721 5721 5718 5715 5710 5708 5702 5698 5695 5691 5688 5684 5680 5675 5670 5664 5660 5655 5647 5640 5633 5627 5620
5716 5715 5712 5710 5711 5709 5706 5699 5695 5691 5689 5686 5682 5678 5674 5670 5665 5660 5655 5650 5643 5637 5630 5623 5613 5604 5597
5705 5703 5701 5700 5699 5695 5691 5686 5682 5679 5676 5673 5670 5665 5661 5656 5650 5645 5639 5633 5626 5619 5610 5603 5593 5584 5573
5694 5692 5690 5689 5685 5682 5677 5674 5672 5669 5665 5661 5656 5652 5647 5640 5636 5630 5623 5615 5609 5600 5591 5581 5570 5559 5544
5682 5680 5678 5674 5671 5668 5665 5664 5661 5658 5653 5648 5643 5638 5631 5625 5619 5613 5606 5598 5590 5580 5570 5559 5543 5526 5510
5670 5669 5666 5662 5659 5657 5655 5653 5649 5647 5643 5632 5630 5623 5618 5611 5603 5595 5587 5579 5570 5559 5544 5529 5512 5495 5481
5659 5658 5654 5651 5649 5648 5646 5642 5638 5635 5634 5626 5620 5613 5605 5596 5586 5577 5567 5558 5545 5531 5517 5502 5484 5469 5458
5646 5643 5642 5640 5639 5637 5634 5631 5626 5623 5621 5617 5609 5603 5593 5581 5570 5558 5547 5533 5518 5504 5489 5475 5462 5451 5439
5636 5634 5631 5629 5628 5625 5623 5619 5615 5611 5608 5604 5596 5593 5582 5567 5553 5539 5525 5509 5493 5480 5466 5452 5442 5432 5422
5624 5622 5622 5620 5616 5614 5611 5608 5605 5600 5595 5591 5582 5575 5572 5560 5541 5521 5502 5484 5469 5455 5443 5430 5421 5414 5407
5613 5613 5611 5610 5607 5604 5600 5596 5592 5585 5580 5575 5567 5558 5548 5540 5527 5506 5488 5469 5452 5438 5424 5413 5404 5397 5395
5602 5602 5600 5599 5597 5593 5588 5583 5577 5573 5567 5559 5551 5540 5528 5518 5503 5488 5469 5452 5436 5425 5414 5405 5395 5388 5382
5593 5591 5589 5587 5584 5580 5575 5569 5562 5558 5552 5544 5534 5523 5508 5495 5481 5464 5451 5442 5425 5412 5404 5396 5388 5381 5377
5582 5581 5578 5576 5572 5568 5563 5558 5550 5540 5533 5526 5516 5506 5492 5471 5454 5442 5428 5422 5415 5402 5395 5387 5378 5367 5362
5572 5570 5567 5565 5561 5557 5551 5545 5538 5529 5517 5506 5498 5485 5468 5451 5441 5425 5415 5409 5398 5391 5384 5378 5367 5356 5349
5562 5560 5556 5552 5549 5544 5539 5532 5523 5513 5503 5492 5481 5468 5450 5431 5415 5410 5400 5395 5389 5381 5373 5366 5360 5345 5338
5552 5548 5544 5541 5536 5531 5525 5517 5508 5497 5485 5476 5463 5451 5441 5430 5414 5391 5391 5385 5379 5373 5364 5355 5347 5338 5330